Date,TemperatureHighF,TemperatureAvgF,TemperatureLowF,DewpointHighF,DewpointAvgF,DewpointLowF,HumidityHigh,HumidityAvg,HumidityLow,PressureMaxIn,PressureMinIn,WindSpeedMaxMPH,WindSpeedAvgMPH,GustSpeedMaxMPH,PrecipitationSumIn
2013-2-1,17.0,14.6,12.0,9.0,6.8,5.0,76,71,64,30.24,29.93,8,3,14,0.00
2013-2-2,17.0,13.8,4.0,12.0,7.2,-1.0,81,75,67,30.16,30.01,5,1,10,0.00
2013-2-3,20.0,14.7,6.0,13.0,8.7,1.0,81,77,71,30.03,29.89,6,1,12,0.00
2013-2-4,23.0,17.5,9.0,18.0,11.2,3.0,81,75,68,30.02,29.88,3,1,8,0.02
2013-2-5,29.0,17.6,5.0,21.0,10.7,0.0,80,74,59,30.00,29.77,7,2,14,0.01
2013-2-6,33.0,24.5,10.0,23.0,17.2,3.0,80,74,67,30.25,30.00,6,1,12,0.18
2013-2-7,34.0,29.1,27.0,24.0,21.1,16.0,81,73,52,30.20,29.86,6,3,12,0.01
2013-2-8,32.0,26.5,15.0,24.0,18.9,10.0,82,73,53,30.36,29.85,7,3,15,0.07
2013-2-9,32.0,19.4,4.0,23.0,12.9,0.0,82,76,64,30.42,30.20,7,2,13,0.07
2013-2-10,43.0,28.6,20.0,34.0,22.7,15.0,83,79,53,30.20,29.53,12,4,20,0.31
2013-2-11,45.0,35.1,30.0,38.0,27.5,18.0,81,74,50,29.87,29.48,13,8,28,0.22
2013-2-12,30.0,27.8,26.0,25.0,22.8,21.0,82,81,79,30.03,29.87,7,4,17,0.01
2013-2-13,38.0,30.1,22.0,30.0,23.8,15.0,81,77,70,29.91,29.71,6,2,12,0.02
2013-2-14,39.0,34.0,27.0,33.0,25.0,16.0,81,70,57,29.89,29.60,9,4,20,0.10
2013-2-15,28.0,23.7,21.0,23.0,17.1,14.0,83,76,64,30.14,29.89,6,3,15,0.01
2013-2-16,22.0,17.8,11.0,16.0,12.4,8.0,90,80,68,30.12,30.04,8,2,15,0.01
2013-2-17,25.0,13.2,0.0,13.0,6.2,-4.0,84,74,58,30.23,30.12,5,1,9,0.01
2013-2-18,45.0,33.0,18.0,38.0,23.1,11.0,81,66,59,30.13,29.40,10,6,20,0.12
2013-2-19,44.0,24.1,17.0,33.0,16.9,11.0,84,74,62,29.98,29.34,12,7,26,0.17
2013-2-20,21.0,18.5,16.0,16.0,13.1,11.0,83,79,73,30.30,29.98,11,5,22,0.00
2013-2-21,26.0,22.2,20.0,19.0,16.3,14.0,82,78,71,30.37,30.16,7,4,18,0.00
2013-2-22,33.0,25.2,20.0,20.0,17.4,15.0,84,72,56,30.16,29.83,12,6,21,0.00
2013-2-23,32.0,28.8,26.0,25.0,22.2,18.0,82,76,60,29.89,29.81,7,3,17,0.00
2013-2-24,36.0,30.1,23.0,28.0,23.7,16.0,82,77,67,30.14,29.88,7,2,15,0.09
2013-2-25,41.0,28.3,15.0,29.0,19.5,9.0,81,70,56,30.21,30.08,4,1,8,0.01
2013-2-26,34.0,31.0,28.0,28.0,23.4,19.0,83,74,55,30.10,29.52,12,6,26,0.05
2013-2-27,33.0,33.0,33.0,19.0,18.0,18.0,55,54,54,29.57,29.46,4,1,12,0.47
2013-2-28,35.0,32.9,30.0,30.0,23.5,18.0,82,70,54,29.99,29.56,7,5,16,0.16